TimeCST,TemperatureF,Dew PointF,Humidity,Sea Level PressureIn,VisibilityMPH,Wind Direction,Wind SpeedMPH,Gust SpeedMPH,PrecipitationIn,Events,Conditions,WindDirDegrees,DateUTC
12:15 AM,-20.2,-25.6,76,30.28,10.0,Calm,Calm,-,N/A,,Clear,0,2013-01-26 06:15:00
12:33 AM,-20.2,-25.6,76,30.28,10.0,Calm,Calm,-,N/A,,Clear,0,2013-01-26 06:33:00
12:55 AM,-20.2,-25.6,76,30.28,10.0,Calm,Calm,-,N/A,,Clear,0,2013-01-26 06:55:00
1:18 AM,-20.2,-25.6,76,30.29,10.0,Calm,Calm,-,N/A,,Clear,0,2013-01-26 07:18:00
1:33 AM,-22.0,-27.4,76,30.29,10.0,Calm,Calm,-,N/A,,Clear,0,2013-01-26 07:33:00
1:53 AM,-22.0,-27.4,76,30.29,10.0,Calm,Calm,-,N/A,,Clear,0,2013-01-26 07:53:00
2:13 AM,-22.0,-27.4,76,30.29,10.0,Calm,Calm,-,N/A,,Clear,0,2013-01-26 08:13:00
2:33 AM,-22.0,-27.4,76,30.28,10.0,Calm,Calm,-,N/A,,Clear,0,2013-01-26 08:33:00
2:53 AM,-23.8,-27.4,83,30.29,10.0,Calm,Calm,-,N/A,,Clear,0,2013-01-26 08:53:00
3:13 AM,-23.8,-27.4,83,30.28,10.0,Calm,Calm,-,N/A,,Clear,0,2013-01-26 09:13:00
3:33 AM,-23.8,-27.4,83,30.29,10.0,Calm,Calm,-,N/A,,Clear,0,2013-01-26 09:33:00
3:53 AM,-23.8,-27.4,83,30.28,10.0,Calm,Calm,-,N/A,,Clear,0,2013-01-26 09:53:00
4:13 AM,-23.8,-27.4,83,30.27,10.0,Calm,Calm,-,N/A,,Clear,0,2013-01-26 10:13:00
4:35 AM,-23.8,-27.4,83,30.27,10.0,Calm,Calm,-,N/A,,Clear,0,2013-01-26 10:35:00
4:53 AM,-23.8,-27.4,83,30.27,10.0,Calm,Calm,-,N/A,,Clear,0,2013-01-26 10:53:00
5:13 AM,-23.8,-29.2,76,30.27,10.0,Calm,Calm,-,N/A,,Clear,0,2013-01-26 11:13:00
5:35 AM,-23.8,-29.2,76,30.28,10.0,Calm,Calm,-,N/A,,Clear,0,2013-01-26 11:35:00
5:55 AM,-23.8,-29.2,76,30.27,10.0,Calm,Calm,-,N/A,,Clear,0,2013-01-26 11:55:00
6:13 AM,-23.8,-29.2,76,30.28,10.0,Calm,Calm,-,N/A,,Clear,0,2013-01-26 12:13:00
6:33 AM,-23.8,-29.2,76,30.28,10.0,Calm,Calm,-,N/A,,Clear,0,2013-01-26 12:33:00
6:53 AM,-23.8,-27.4,83,30.29,10.0,Calm,Calm,-,N/A,,Clear,0,2013-01-26 12:53:00
7:14 AM,-22.0,-27.4,76,30.29,10.0,Calm,Calm,-,N/A,,Clear,0,2013-01-26 13:14:00
7:33 AM,-22.0,-25.6,83,30.29,10.0,Calm,Calm,-,N/A,,Clear,0,2013-01-26 13:33:00
7:53 AM,-20.2,-25.6,76,30.29,10.0,Calm,Calm,-,N/A,,Scattered Clouds,0,2013-01-26 13:53:00
8:13 AM,-18.4,-23.8,76,30.28,10.0,Calm,Calm,-,N/A,,Mostly Cloudy,0,2013-01-26 14:13:00
8:35 AM,-16.6,-18.4,92,30.28,10.0,Calm,Calm,-,N/A,,Scattered Clouds,0,2013-01-26 14:35:00
8:53 AM,-14.8,-20.2,77,30.31,10.0,Calm,Calm,-,N/A,,Scattered Clouds,0,2013-01-26 14:53:00
9:13 AM,-14.8,-18.4,84,30.30,10.0,Calm,Calm,-,N/A,,Scattered Clouds,0,2013-01-26 15:13:00
9:34 AM,-9.4,-13.0,84,30.30,10.0,Calm,Calm,-,N/A,,Mostly Cloudy,0,2013-01-26 15:34:00
9:53 AM,-5.8,-9.4,84,30.30,10.0,Calm,Calm,-,N/A,,Overcast,0,2013-01-26 15:53:00
10:14 AM,-4.0,-7.6,85,30.28,10.0,Calm,Calm,-,N/A,,Overcast,0,2013-01-26 16:14:00
10:37 AM,-2.2,-5.8,85,30.30,10.0,NW,3.5,-,N/A,,Mostly Cloudy,320,2013-01-26 16:37:00
11:01 AM,-0.4,-4.0,85,30.28,10.0,Calm,Calm,-,N/A,,Scattered Clouds,0,2013-01-26 17:01:00
11:14 AM,-0.4,-2.2,92,30.27,10.0,Calm,Calm,-,N/A,,Mostly Cloudy,0,2013-01-26 17:14:00
11:35 AM,1.4,-0.4,92,30.27,10.0,Calm,Calm,-,N/A,,Overcast,0,2013-01-26 17:35:00
11:53 AM,3.2,-0.4,85,30.27,10.0,Calm,Calm,-,N/A,,Overcast,0,2013-01-26 17:53:00
12:14 PM,3.2,1.4,92,30.25,10.0,Calm,Calm,-,N/A,,Mostly Cloudy,0,2013-01-26 18:14:00
12:34 PM,6.8,-0.4,72,30.18,10.0,SSE,8.1,-,N/A,,Scattered Clouds,150,2013-01-26 18:34:00
12:53 PM,5.0,1.4,85,30.24,10.0,Calm,Calm,-,N/A,,Overcast,0,2013-01-26 18:53:00
1:13 PM,6.8,5.0,92,30.23,7.0,Calm,Calm,-,N/A,Snow,Light Snow,0,2013-01-26 19:13:00
1:34 PM,10.4,6.8,85,30.22,10.0,SSE,3.5,-,N/A,,Mostly Cloudy,150,2013-01-26 19:34:00
1:55 PM,12.2,6.8,79,30.21,5.0,SSE,8.1,-,N/A,Snow,Light Snow,160,2013-01-26 19:55:00
2:13 PM,12.2,6.8,79,30.19,3.0,SSE,3.5,-,N/A,Snow,Light Snow,160,2013-01-26 20:13:00
2:33 PM,12.2,6.8,79,30.19,5.0,SSE,4.6,-,N/A,Snow,Light Snow,150,2013-01-26 20:33:00
2:53 PM,12.2,6.8,79,30.18,10.0,SE,4.6,-,N/A,Snow,Light Snow,140,2013-01-26 20:53:00
3:33 PM,14.0,8.6,79,30.18,10.0,South,5.8,-,N/A,,Overcast,170,2013-01-26 21:33:00
3:53 PM,14.0,8.6,79,30.17,10.0,SE,4.6,-,N/A,,Overcast,140,2013-01-26 21:53:00
4:13 PM,15.8,8.6,73,30.15,10.0,SSE,4.6,-,N/A,,Overcast,150,2013-01-26 22:13:00
4:33 PM,15.8,8.6,73,30.15,10.0,SSE,3.5,-,N/A,,Overcast,150,2013-01-26 22:33:00
4:53 PM,15.8,10.4,79,30.14,10.0,Calm,Calm,-,N/A,,Overcast,0,2013-01-26 22:53:00
5:13 PM,15.8,8.6,73,30.13,10.0,SSE,4.6,-,N/A,,Overcast,150,2013-01-26 23:13:00
5:33 PM,15.8,8.6,73,30.12,10.0,SE,3.5,-,N/A,,Overcast,140,2013-01-26 23:33:00
5:53 PM,15.8,10.4,79,30.13,10.0,SSE,4.6,-,N/A,,Overcast,150,2013-01-26 23:53:00
6:13 PM,15.8,10.4,79,30.13,10.0,SSE,5.8,-,N/A,,Overcast,150,2013-01-27 00:13:00
6:33 PM,15.8,10.4,79,30.12,10.0,SSE,5.8,-,N/A,,Overcast,160,2013-01-27 00:33:00
6:53 PM,15.8,8.6,73,30.13,10.0,SSE,8.1,-,N/A,,Overcast,160,2013-01-27 00:53:00
7:13 PM,15.8,8.6,73,30.12,10.0,SSE,8.1,-,N/A,,Overcast,150,2013-01-27 01:13:00
7:33 PM,15.8,8.6,73,30.13,10.0,SSE,4.6,-,N/A,,Overcast,150,2013-01-27 01:33:00
7:53 PM,14.0,8.6,79,30.12,10.0,SSE,5.8,-,N/A,,Overcast,160,2013-01-27 01:53:00
8:13 PM,14.0,8.6,79,30.11,10.0,South,6.9,-,N/A,,Overcast,180,2013-01-27 02:13:00
8:33 PM,14.0,8.6,79,30.11,10.0,SSE,5.8,-,N/A,,Overcast,160,2013-01-27 02:33:00
8:53 PM,14.0,8.6,79,30.11,10.0,South,4.6,-,N/A,,Overcast,170,2013-01-27 02:53:00
9:13 PM,14.0,8.6,79,30.10,10.0,SSE,4.6,-,N/A,,Mostly Cloudy,160,2013-01-27 03:13:00
9:33 PM,14.0,8.6,79,30.11,10.0,South,3.5,-,N/A,,Mostly Cloudy,170,2013-01-27 03:33:00
9:53 PM,14.0,8.6,79,30.12,10.0,South,3.5,-,N/A,,Mostly Cloudy,180,2013-01-27 03:53:00
10:13 PM,15.8,10.4,79,30.12,10.0,South,4.6,-,N/A,,Scattered Clouds,180,2013-01-27 04:13:00
10:33 PM,14.0,10.4,86,30.12,10.0,Calm,Calm,-,N/A,,Scattered Clouds,0,2013-01-27 04:33:00
10:53 PM,15.8,10.4,79,30.12,7.0,Calm,Calm,-,N/A,Snow,Light Snow,0,2013-01-27 04:53:00
11:13 PM,15.8,10.4,79,30.14,10.0,Calm,Calm,-,N/A,,Mostly Cloudy,0,2013-01-27 05:13:00
11:33 PM,15.8,10.4,79,30.12,10.0,SSE,4.6,-,N/A,,Mostly Cloudy,160,2013-01-27 05:33:00
11:53 PM,15.8,10.4,79,30.11,10.0,SSE,4.6,-,N/A,,Overcast,160,2013-01-27 05:53:00